Flag for Japan Weather past 2 weeks in Sapporo, Japan

Now
21 °F

Cold.


Feels Like: 13 °F
Forecast: 18 / 25 °F
Wind: 7 mph from West

Location: Sapporo

Current Time: Jan 28, 2015 at 6:33:04 AM

Latest Report: Jan 28, 2015 at 5:00 AM


Visibility: N/A

Pressure: 29.88 "Hg

Humidity: 47%

Dew point: 4 °F

Location of SapporoLocation

Historic Weather in Sapporo — Graph

°F

Sapporo temperature yesterday

Maximum temperature yesterday: 40 °F (at 8:00 AM)
Minimum temperature yesterday: 24 °F (at 11:00 PM)
Average temperature yesterday: 34 °F

Past Weeks' High & Low Weather Summary

 TemperatureHumidityPressure
High40 °F (Jan 14, 2:00 PM)93% (Jan 22, 7:00 PM)30.39 "Hg (Jan 22, 7:00 PM)
Low19 °F (Jan 18, 10:00 PM)39% (Jan 20, 6:00 AM)29.44 "Hg (Jan 17, 12:00 PM)
Average29 °F73%30.01 "Hg
* Reported Jan 13 5:00 AM — Jan 28 5:00 AM, Sapporo, Weather by CustomWeather, © 2014

Note: Actual official high and low records may vary slightly from our data, if they occured in-between our weather recording intervals... More about our weather records

Advertising

Sapporo weather history for previous 24 hours

 ConditionsComfort  
Time TempWeatherWind HumidityBarometerVisibility
5:00 AM
Jan 28
21 °FCold.7 mph47%29.88 "HgN/A
4:00 AM21 °FCold.8 mph49%29.86 "HgN/A
3:00 AM22 °FOvercast.3 mph46%29.87 "Hg6 mi
2:00 AM23 °FCold.3 mph52%29.86 "HgN/A
1:00 AM23 °FCold.5 mph56%29.84 "HgN/A
12:00 AM24 °FCold.8 mph47%29.84 "HgN/A
11:00 PM
Jan 27
24 °FCold.9 mph54%29.83 "HgN/A
10:00 PM24 °FCold.10 mph58%29.83 "HgN/A
9:00 PM25 °FOvercast.13 mph50%29.83 "Hg6 mi
8:00 PM26 °FChilly.10 mph51%29.83 "HgN/A
7:00 PM28 °FChilly.7 mph47%29.80 "HgN/A
6:00 PM29 °FOvercast.12 mph49%29.79 "Hg6 mi
5:00 PM31 °FChilly.12 mph49%29.77 "HgN/A
4:00 PM32 °FChilly.9 mph71%29.75 "HgN/A
3:00 PM32 °FSnow flurries. Overcast.17 mph80%29.73 "Hg6 mi
2:00 PM34 °FChilly.16 mph72%29.68 "HgN/A
1:00 PM36 °FChilly.14 mph70%29.67 "HgN/A
12:00 PM37 °FSprinkles. Overcast.10 mph83%29.68 "Hg12 mi
11:00 AM38 °FChilly.3 mph91%29.70 "HgN/A
10:00 AM38 °FChilly.8 mph90%29.72 "HgN/A
9:00 AM40 °FSprinkles. Overcast.5 mph84%29.72 "Hg9 mi
8:00 AM40 °FChilly.7 mph82%29.71 "HgN/A
7:00 AM40 °FChilly.22 mph81%29.69 "HgN/A
Weather by CustomWeather, © 2014

See weather overviewHow to use our weather pages